Regional Weather Roundup
Issued by NWS

Home | Current Version | Previous Version | Graphics & Text | Print | Product List | Glossary On
Versions: 1 2 3 4 5 6 7 8 9 10 11 12 13 14 15 16 17 18 19 20 21 22 23 24 25 26 27 28 29 30 31 32 33 34 35 36 37 38 39 40 41 42 43 44 45 46 47 48 49 50
000
ASUS43 KMKX 021010
RWRWI

WISCONSIN REGIONAL WEATHER ROUNDUP
NATIONAL WEATHER SERVICE MILWAUKEE/SULLIVAN WI
400 AM CST MON MAR 02 2015

NOTE: "FAIR" INDICATES FEW OR NO CLOUDS BELOW 12,000 FEET WITH NO
SIGNIFICANT WEATHER AND/OR OBSTRUCTIONS TO VISIBILITY.

WIZ001-002-006>008-014>016-023>028-021100-
NORTHWEST WISCONSIN

CITY           SKY/WX    TMP DP  RH WIND       PRES   REMARKS
SUPERIOR ARPT  CLEAR     10   4  80 SW9       30.40S WCI  -4
ASHLAND        CLEAR      9   4  80 SW6       30.38R WCI  -1
HAYWARD        FAIR      -1  -7  75 CALM      30.36R
SIREN          CLEAR      2  -2  81 CALM      30.42R
CUMBERLAND     CLEAR      7   3  85 W7        30.39R WCI  -5
RICE LAKE      CLEAR      5   1  85 W3        30.41R
CHETEK         CLEAR      8   4  84 W3        30.40R
LADYSMITH      CLEAR     10   5  82 W6        30.37R WCI   0
EAU CLAIRE     FAIR      11   3  70 W5        30.41R WCI   3
MENOMONIE      CLEAR     13   6  74 NW8       30.41R WCI   2
NEW RICHMOND   CLEAR      8   4  82 W3        30.42R
OSCEOLA        CLEAR     10   6  82 CALM      30.46R
$$

WIZ003>005-009-010-017-018-021100-
NORTH CENTRAL WISCONSIN

CITY           SKY/WX    TMP DP  RH WIND       PRES   REMARKS
MANITOWISH WTR CLOUDY    13   4  67 NW9       30.27R WCI   1
ARBOR VITAE    CLOUDY    17   6  63 NW9G17    30.27R WCI   5
WOODRUFF       CLOUDY    17   6  63 NW9G17    30.27R WCI   5
RHINELANDER    CLOUDY    13   2  61 NW9G18    30.27R WCI   1
EAGLE RIVER    FLURRIES  12   5  74 W9        30.24R WCI   0
LAND O LAKES   LGT SNOW  14   9  82 W5        30.24R WCI   6
PHILLIPS       CLEAR      9   3  77 W5        30.31R WCI   1
TOMAHAWK       MOCLDY    13   3  64 CALM      30.30R
MEDFORD        CLEAR      9   4  81 NW6       30.31S WCI  -1
MERRILL        FLURRIES  11   7  81 W7        30.31R WCI   1
$$

WIZ029-030-035-036-043>047-021100-
CENTRAL WISCONSIN

CITY           SKY/WX    TMP DP  RH WIND       PRES   REMARKS
WAUSAU         PTCLDY    10   5  80 W10       30.31R WCI  -4
MOSINEE        CLEAR     12   9  85 W10       30.33S WCI  -1
MARSHFIELD     CLEAR     12   5  73 NW15      30.33S WCI  -4
STEVENS POINT  CLEAR     13   6  73 NW8       30.35R WCI   2
WAUPACA        CLEAR     16   7  69 W7        30.37R WCI   6
WAUTOMA        CLEAR     13   7  77 W7        30.39R WCI   3
WISC RAPIDS    FAIR      11   5  77 NW5       30.38R WCI   3
CAMP DOUGLAS   CLEAR     11  10  95 W7        30.39R WCI   0
$$

WIZ011>013-019>022-031-037>040-048>050-021100-
NORTHEAST WISCONSIN

CITY           SKY/WX    TMP DP  RH WIND       PRES   REMARKS
ANTIGO         PTCLDY     9   6  85 W9        30.28R WCI  -4
SHAWANO        CLEAR     16   8  69 W3        30.34R
OCONTO         CLEAR     11   5  76 W6        30.33R WCI   2
STURGEON BAY   CLEAR     16   5  62 W10       30.32R WCI   3
GREEN BAY      CLEAR     14   7  73 W10       30.34R WCI   1
MANITOWOC      CLEAR     16   9  74 W8        30.35R WCI   5
APPLETON       CLEAR     10   5  79 W10       30.34S WCI  -3
CLINTONVILLE   CLEAR     14   7  73 W7        30.34R WCI   4
OSHKOSH        CLEAR     14   7  73 W6        30.36R WCI   5
$$

WIZ032>034-041-042-053>061-021100-
SOUTHWEST WISCONSIN

CITY           SKY/WX    TMP DP  RH WIND       PRES   REMARKS
LA CROSSE      MOCLDY    17  10  74 W6        30.43R WCI   9
SPARTA         CLEAR     11   6  81 W3        30.42R
VIROQUA        PTCLDY    15  12  88 W5        30.38R WCI   7
BOSCOBEL       PTCLDY     5   0  79 CALM      30.43S
PRAIRIE DU CHI PTCLDY    12   9  89 CALM      30.45R
PLATTEVILLE    MOCLDY    11   9  89 SW7       30.42R WCI   1
$$

WIZ056-057-062-063-064-067-068-021100-
SOUTH CENTRAL WISCONSIN

CITY           SKY/WX    TMP DP  RH WIND       PRES   REMARKS
REEDSBURG      CLEAR     13   9  82 NW3       30.40R
BARABOO/DELLS  CLEAR     12   8  81 SW3       30.39R
LONE ROCK      CLEAR      2  -1  88 CALM      30.43R
MINERAL POINT  PTCLDY    10   9  92 W5        30.39R WCI   2
MADISON        CLEAR      9   5  84 W3        30.40R
MIDDLETON      CLEAR     12   6  77 CALM      30.40R
WATERTOWN      CLEAR     11   7  82 CALM      30.38S
MONROE         PTCLDY    12  10  92 W12       30.40R WCI  -2
JANESVILLE     CLEAR     14   9  79 W3        30.41R
$$

WIZ051-052-058>065-066-070>072-021100-
SOUTHEAST WISCONSIN

CITY           SKY/WX    TMP DP  RH WIND       PRES   REMARKS
MILWAUKEE      CLEAR     17   6  62 W7        30.39R WCI   8
WAUKESHA       CLEAR     12   7  79 W8        30.39R WCI   1
MILWAUKEE/TIMM CLEAR     14   7  73 W5        30.39R WCI   6
RACINE         CLEAR     14   6  70 W7        30.41R WCI   4
BURLINGTON     CLEAR     10   5  79 W3        30.40R
KENOSHA        CLEAR     14   6  70 SW7       30.40R WCI   4
FOND DU LAC    CLEAR     15   6  67 W9        30.37R WCI   3
SHEBOYGAN      FAIR      15   7  70 W8        30.36R WCI   4
WEST BEND      CLEAR     18   9  68 NW8       30.36S WCI   7
JUNEAU         CLEAR     12   7  79 W3        30.39R
$$

LSZ147-162-021100-
LAKE SUPERIOR

STATION/POSITION TIME  TEMP    WIND        PRES    WAVE
                       AIR SEA DIR/SP/G            HT/PER
                 (UTC) (F)     (DEG/KT/KT) (MB)    (FT/S)
DEVILS ISLAND    1000   17     290/ 13/ 18 1029.4R
PORT WING        0900   18     280/ 15/ 19 1028.4
SAXON HARBOR     0900   16     270/  1/  7 1027.4S
$$

LMZ867-665-643>646-021100-
LAKE MICHIGAN

STATION/POSITION TIME  TEMP    WIND        PRES    WAVE
                       AIR SEA DIR/SP/G            HT/PER
                 (UTC) (F)     (DEG/KT/KT) (MB)    (FT/S)
NORTHPORT PIER   0904   17     280/  7/ 14 1024.7R
SISTER BAY       0913   13     270/  9/ 10   N/A
KEWAUNEE LAKESHO 0900   17     300/  6/ 11 1025.4R
SHEBOYGAN LAKESH 1000   18     270/ 10/ 12 1029.6R
PORT WASHINGTON  0900   18     280/  4/  7 1028.8
MILWAUKEE LAKESH 0900   20     280/  7/ 11   N/A
KENOSHA   LAKESH 1000   17     270/  9/ 13 1029.5R
$$

TC  - TEMPERATURE IN CELSIUS
VSB - VISIBILITY IN STATUTE MILES
WCI - WIND CHILL INDEX
HX  - HEAT INDEX



USA.gov is the U.S. government's official web portal to all federal, state and local government web resources and services.